Location: Newark
(50.4348°N, 30.5552°E)
Time: 11:44:09
(UTC+00:00)

Envisat - Pass Details

Date: 09 December 2019
Orbit: 764 x 766 km, 98.1° (Epoch: 18 January)

Event Time Altitude Azimuth Distance (km) Brightness Sun altitude
Rises 14:54:44 0° 140° (SE) 3,225 6.1 -9.1°
Reaches altitude 10° 14:57:09 10° 133° (SE) 2,303 5.3 -9.5°
Maximum altitude 15:01:50 39° 66° (ENE) 1,141 3.4 -10.2°
Drops below altitude 10° 15:06:33 10° 358° (N) 2,317 5.3 -10.9°
Sets 15:08:58 0° 351° (N) 3,248 6.1 -11.2°
